KD0ARW-13 Weather Reports


Display with metric or nautical units.
time (UTC)temp
F
wind
direction
speed
MPH
gust
MPH
rain 1hr
in
rain 24hr
in
rain mn
in
humidity
%
barometer
mb
20260504174842 86 10 0.0 0.0 0.00 0.00 0.00
20260504174343 83 10 7.0 0.0 0.00 0.00 0.00
20260504173845 83 330 6.0 9.0 0.00 0.00 0.00
20260504173346 81 42 4.0 7.0 0.00 0.00 0.00
20260504172848 84 322 0.0 0.0 0.00 0.00 0.00
20260504172349 82 347 3.0 4.0 0.00 0.00 0.00
20260504171851 82 314 2.0 5.0 0.00 0.00 0.00
20260504171352 80 359 0.0 5.0 0.00 0.00 0.00
20260504170855 80 18 3.0 8.0 0.00 0.00 0.00
20260504170355 79 297 2.0 5.0 0.00 0.00 0.00
20260504160414 76 38 3.0 5.0 0.00 0.00 0.00
20260504150931 69 353 8.0 8.0 0.00 0.00 0.00
20260504140949 60 342 9.0 11.0 0.00 0.00 0.00
20260504140451 60 359 8.0 11.0 0.00 0.00 0.00
20260504130502 54 155 0.0 0.0 0.00 0.00 0.00
20260504110525 50 155 0.0 0.0 0.00 0.00 0.00
20260504100545 51 155 0.0 0.0 0.00 0.00 0.00
20260504081616 56 155 0.0 0.0 0.00 0.00 0.00
20260504081117 57 155 0.0 0.0 0.00 0.00 0.00
20260504080619 56 155 0.0 0.0 0.00 0.00 0.00
20260504080121 57 155 0.0 0.0 0.00 0.00 0.00
20260504070139 58 155 0.0 0.0 0.00 0.00 0.00
20260504060157 60 155 0.0 0.0 0.00 0.00 0.00
20260504050714 62 186 0.0 0.0 0.00 0.00 0.00
20260504050215 62 186 1.0 0.0 0.00 0.00 0.00
20260504045717 63 158 0.0 3.0 0.00 0.00 0.00
20260504045218 62 100 0.0 0.0 0.00 0.00 0.00
20260504044720 63 100 0.0 0.0 0.00 0.00 0.00
20260504044221 63 93 0.0 0.0 0.00 0.00 0.00
20260504043723 63 100 0.0 0.0 0.00 0.00 0.00
20260504043224 63 118 0.0 0.0 0.00 0.00 0.00
20260504042726 63 101 0.0 0.0 0.00 0.00 0.00
20260504042227 63 101 0.0 0.0 0.00 0.00 0.00
20260504041729 63 155 0.0 0.0 0.00 0.00 0.00
20260504041231 63 155 0.0 0.0 0.00 0.00 0.00
20260504040732 63 155 0.0 0.0 0.00 0.00 0.00
20260504040234 64 155 0.0 0.0 0.00 0.00 0.00
20260504035735 63 155 0.0 0.0 0.00 0.00 0.00
20260504035237 63 155 0.0 0.0 0.00 0.00 0.00
20260504034738 64 155 0.0 0.0 0.00 0.00 0.00
20260504034240 64 155 0.0 0.0 0.00 0.00 0.00
20260504033742 64 155 0.0 0.0 0.00 0.00 0.00
20260504033243 65 155 0.0 0.0 0.00 0.00 0.00
20260504032745 65 155 0.0 0.0 0.00 0.00 0.00
20260504032246 65 155 0.0 0.0 0.00 0.00 0.00
20260504031748 65 155 0.0 0.0 0.00 0.00 0.00
20260504031250 66 155 0.0 0.0 0.00 0.00 0.00
20260504030751 66 155 0.0 0.0 0.00 0.00 0.00
20260504030253 66 155 0.0 0.0 0.00 0.00 0.00
20260504025754 67 155 0.0 0.0 0.00 0.00 0.00
20260504025256 67 155 0.0 0.0 0.00 0.00 0.00
20260504024757 67 155 0.0 0.0 0.00 0.00 0.00
20260504024259 67 155 0.0 0.0 0.00 0.00 0.00
20260504023801 69 155 0.0 0.0 0.00 0.00 0.00
20260504023302 70 155 0.0 0.0 0.00 0.00 0.00
20260504022804 69 155 0.0 0.0 0.00 0.00 0.00
20260504022305 68 155 0.0 0.0 0.00 0.00 0.00
20260504021807 69 155 0.0 0.0 0.00 0.00 0.00
20260504021308 69 210 0.0 0.0 0.00 0.00 0.00
20260504020810 69 210 0.0 0.0 0.00 0.00 0.00
20260504020311 70 210 0.0 0.0 0.00 0.00 0.00
20260504015813 70 210 0.0 0.0 0.00 0.00 0.00
20260504015314 70 210 0.0 0.0 0.00 0.00 0.00
20260504014816 71 210 0.0 0.0 0.00 0.00 0.00
20260504014318 71 210 0.0 0.0 0.00 0.00 0.00
20260504013819 72 210 0.0 0.0 0.00 0.00 0.00
20260504013321 72 210 0.0 0.0 0.00 0.00 0.00
20260504012822 72 210 0.0 0.0 0.00 0.00 0.00
20260504012324 72 210 0.0 0.0 0.00 0.00 0.00
20260504011825 73 210 0.0 0.0 0.00 0.00 0.00
20260504011327 73 210 0.0 0.0 0.00 0.00 0.00
20260504010330 74 210 0.0 0.0 0.00 0.00 0.00
20260504005832 75 210 0.0 0.0 0.00 0.00 0.00
20260504005333 75 210 0.0 0.0 0.00 0.00 0.00
20260504004835 76 210 0.0 0.0 0.00 0.00 0.00
20260504004336 76 210 0.0 0.0 0.00 0.00 0.00
20260504003340 77 210 0.0 0.0 0.00 0.00 0.00
20260504002841 77 210 0.0 0.0 0.00 0.00 0.00
20260504002343 78 210 0.0 0.0 0.00 0.00 0.00
20260504001844 79 210 0.0 0.0 0.00 0.00 0.00
20260504001346 79 210 0.0 0.0 0.00 0.00 0.00
20260504000847 78 210 0.0 0.0 0.00 0.00 0.00
20260504000349 78 210 0.0 0.0 0.00 0.00 0.00
20260503235851 79 210 0.0 0.0 0.00 0.00 0.00
20260503235352 79 210 0.0 0.0 0.00 0.00 0.00
20260503234854 79 210 0.0 0.0 0.00 0.00 0.00
20260503234355 78 210 0.0 0.0 0.00 0.00 0.00
20260503233857 79 210 0.0 0.0 0.00 0.00 0.00
20260503233358 78 210 0.0 0.0 0.00 0.00 0.00
20260503232900 78 167 0.0 0.0 0.00 0.00 0.00
20260503231903 79 195 2.0 0.0 0.00 0.00 0.00
20260503231405 79 176 1.0 5.0 0.00 0.00 0.00
20260503230906 80 149 0.0 0.0 0.00 0.00 0.00
20260503230408 79 149 0.0 0.0 0.00 0.00 0.00
20260503225910 79 149 0.0 0.0 0.00 0.00 0.00
20260503225411 80 149 0.0 0.0 0.00 0.00 0.00
20260503224913 80 111 0.0 0.0 0.00 0.00 0.00
20260503224414 81 111 1.0 0.0 0.00 0.00 0.00
20260503223916 81 114 0.0 0.0 0.00 0.00 0.00
20260503223418 81 166 0.0 0.0 0.00 0.00 0.00
20260503222919 81 131 1.0 0.0 0.00 0.00 0.00
20260503222421 81 219 2.0 0.0 0.00 0.00 0.00
20260503221922 81 172 0.0 0.0 0.00 0.00 0.00
20260503221424 81 181 1.0 3.0 0.00 0.00 0.00
20260503220925 82 307 1.0 0.0 0.00 0.00 0.00
20260503220427 81 146 0.0 0.0 0.00 0.00 0.00
20260503215929 80 149 1.0 0.0 0.00 0.00 0.00
20260503215430 81 150 3.0 2.0 0.00 0.00 0.00
20260503214931 81 184 0.0 0.0 0.00 0.00 0.00
20260503214433 81 159 0.0 0.0 0.00 0.00 0.00
20260503213935 81 200 6.0 7.0 0.00 0.00 0.00
20260503213436 80 103 0.0 0.0 0.00 0.00 0.00
20260503212938 81 188 4.0 6.0 0.00 0.00 0.00
20260503212439 81 131 0.0 0.0 0.00 0.00 0.00
20260503211941 82 162 0.0 3.0 0.00 0.00 0.00
20260503211442 82 162 1.0 0.0 0.00 0.00 0.00
20260503210944 83 149 0.0 0.0 0.00 0.00 0.00
20260503210445 83 149 0.0 0.0 0.00 0.00 0.00
20260503205947 83 149 0.0 0.0 0.00 0.00 0.00
20260503205449 81 155 5.0 8.0 0.00 0.00 0.00
20260503204950 82 180 3.0 0.0 0.00 0.00 0.00
20260503204452 81 186 7.0 6.0 0.00 0.00 0.00
20260503203954 83 105 0.0 0.0 0.00 0.00 0.00
20260503203455 83 80 1.0 0.0 0.00 0.00 0.00
20260503202957 83 80 0.0 0.0 0.00 0.00 0.00
20260503202458 83 307 1.0 0.0 0.00 0.00 0.00
20260503202000 82 159 5.0 0.0 0.00 0.00 0.00
20260503201501 82 177 0.0 5.0 0.00 0.00 0.00
20260503201003 82 134 2.0 5.0 0.00 0.00 0.00
20260503200505 82 169 0.0 0.0 0.00 0.00 0.00
20260503200006 82 169 0.0 0.0 0.00 0.00 0.00
20260503195508 83 169 0.0 0.0 0.00 0.00 0.00
20260503195009 83 169 3.0 5.0 0.00 0.00 0.00
20260503194511 80 93 1.0 0.0 0.00 0.00 0.00
20260503194012 82 174 5.0 0.0 0.00 0.00 0.00
20260503193514 83 217 4.0 0.0 0.00 0.00 0.00
20260503193017 82 1 0.0 0.0 0.00 0.00 0.00
20260503192517 81 132 3.0 3.0 0.00 0.00 0.00
20260503192018 80 207 8.0 7.0 0.00 0.00 0.00
20260503191520 82 207 0.0 0.0 0.00 0.00 0.00
20260503191022 82 207 2.0 0.0 0.00 0.00 0.00
20260503190523 80 162 6.0 8.0 0.00 0.00 0.00
20260503190025 80 145 9.0 0.0 0.00 0.00 0.00
20260503185526 82 100 0.0 0.0 0.00 0.00 0.00
20260503185028 81 186 1.0 0.0 0.00 0.00 0.00
20260503184029 81 186 2.0 0.0 0.00 0.00 0.00
20260503183531 82 217 1.0 0.0 0.00 0.00 0.00
20260503183033 79 172 3.0 7.0 0.00 0.00 0.00
20260503182533 80 180 6.0 5.0 0.00 0.00 0.00
20260503182035 81 75 3.0 0.0 0.00 0.00 0.00
20260503181537 81 179 0.0 0.0 0.00 0.00 0.00
20260503181038 81 176 2.0 0.0 0.00 0.00 0.00
20260503180539 81 138 0.0 0.0 0.00 0.00 0.00
20260503180041 82 138 0.0 0.0 0.00 0.00 0.00
20260503175542 81 138 0.0 0.0 0.00 0.00 0.00